22:04
Airports
History
Links
Donate
Help keep this website running!
PayPal
Bitcoin
This page is community maintained. The information is intended for PC simulator navigation or reference.
Always use approved charts for navigation.
EDTQ
Pattonville Airport
Pattonville Airport (EDTQ)
Remseck, Baden-Wurttemberg, Germany (71686)
(C)
Lat/Lng:48° 51' 51.08" N / 9° 13' 28.93" E
48.86419 / 9.224702
Elevation:920'ft / 280mMSL
ID / ICAO:EDTQ
Runways:1
Longest:10-28
Asphalt 676m / 2,218ft
Controlled:Yes
Beacon:White-Green
Nearby Weather21:50 GMT 2017-10-17
Nearby weather at EDDS, Stuttgart located 12.0 nautical miles from EDTQ
Altimeter: 30.09
Visibility: 6.2 statute miles
Wind: 1 knots (from 280°)
Temp: 11°c / 52°f
Humidity: 87.5%

METAR: EDDS 172150Z 28001KT CAVOK 11/09 Q1019

(Powered by phpweather)
Nearby VORs <50NM
Nearby NDBs
Runway 10 / 28
Dimensions:675.9 x 21m 2218' x 69'ft
Surface:Asphalt
Edge Lights:Low intensity
Runway 10 [A]Runway 28 [B]
Heading:103°TH 283°TH
Lat:
Lng:
48° 51' 53.59"N
9° 13' 12.85"E
48° 51' 48.58"N
9° 13' 45"E
ALS:MALSFMALSF
User Notes and Comments
48° 51' 51.08" N / 9° 13' 28.93" E
Distance To
Airport ID:
Nearby Airports
(C) Backnang-Heiningen 11.2 NM
EDSH ENE 69°
(C) Stuttgart 12.0 NM
EDDS ( WX ) S 180°
(U) SCHWABISCH HALL 30.8 NM
EDTY NE 55°
(U) Laichingen 31.7 NM
EDPJ SE 143°
(C) Heubach 32.2 NM
EDTH E 97°
(U) Ingelfingen Buehlhof 37.1 NM
EDGI NNE 31°
(U) Mosbach Lohrbach 37.4 NM
EDGM N 352°
VFR Chart
Flight Planning at SkyVector.com